Flag for Barbados Weather past 2 weeks in Bridgetown, Barbados

Now
81 °F

Passing clouds.


Feels Like: 86 °F
Forecast: 82 / 87 °F
Wind: 21 mph from East

Location: Grantley Adams

Current Time: Aug 3, 2015 at 5:17:50 AM

Latest Report: Aug 3, 2015 at 5:00 AM


Visibility: N/A

Pressure: 29.92 "Hg

Humidity: 84%

Dew point: 75 °F

Location of BridgetownLocation

Historic Weather in Bridgetown — Graph

°F

Bridgetown temperature yesterday

Maximum temperature yesterday: 88 °F (at 12:00 PM)
Minimum temperature yesterday: 77 °F (at 1:00 AM)
Average temperature yesterday: 81 °F

Past Weeks' High & Low Weather Summary

 TemperatureHumidityPressure
High88 °F (Jul 22, 1:00 PM)100% (Jul 30, 11:00 PM)30.07 "Hg (Jul 30, 11:00 PM)
Low77 °F (Jul 20, 4:00 AM)62% (Jul 19, 10:00 AM)29.89 "Hg (Aug 1, 5:00 PM)
Average82 °F79%29.98 "Hg
* Reported Jul 19 4:00 AM — Aug 3 4:00 AM, Bridgetown, Weather by CustomWeather, © 2015

Note: Actual official high and low records may vary slightly from our data, if they occured in-between our weather recording intervals... More about our weather records

Advertising

Bridgetown weather history for previous 24 hours

 ConditionsComfort  
Time TempWeatherWind HumidityBarometerVisibility
4:00 AM
Mon, Aug 3
81 °FPassing clouds.17 mph84%29.92 "HgN/A
3:00 AM81 °FPassing clouds.16 mph84%29.92 "HgN/A
2:00 AM81 °FPassing clouds.20 mph84%29.92 "HgN/A
1:00 AM81 °FPassing clouds.18 mph89%29.95 "HgN/A
12:00 AM81 °FPassing clouds.21 mph89%29.95 "HgN/A
11:00 PM
Sun, Aug 2
81 °FPassing clouds.20 mph84%29.98 "HgN/A
10:00 PM81 °FPassing clouds.17 mph89%29.95 "HgN/A
9:00 PM81 °FPassing clouds.17 mph89%29.95 "HgN/A
8:00 PM79 °FPassing clouds.18 mph84%29.92 "HgN/A
7:00 PM79 °FPassing clouds.16 mph89%29.92 "HgN/A
6:00 PM79 °FPartly sunny.20 mph94%29.92 "HgN/A
5:00 PM84 °FScattered clouds.20 mph74%29.89 "HgN/A
4:00 PM84 °FScattered clouds.21 mph79%29.89 "HgN/A
3:00 PM86 °FScattered clouds.21 mph75%29.89 "HgN/A
2:00 PM86 °FScattered clouds.20 mph75%29.92 "HgN/A
1:00 PM86 °FScattered clouds.21 mph75%29.92 "HgN/A
12:00 PM88 °FScattered clouds.18 mph70%29.95 "HgN/A
11:00 AM84 °FSprinkles. Broken clouds.17 mph79%29.95 "HgN/A
10:00 AM86 °FScattered clouds.15 mph75%29.95 "HgN/A
9:00 AM81 °FSprinkles. Broken clouds.18 mph89%29.95 "HgN/A
8:00 AM81 °FPartly sunny.17 mph89%29.95 "HgN/A
7:00 AM81 °FPartly sunny.16 mph89%29.92 "HgN/A
6:00 AM79 °FBroken clouds.6 mph94%29.92 "HgN/A
5:00 AM77 °FPassing clouds.5 mph94%29.89 "HgN/A
Weather by CustomWeather, © 2015

See weather overviewHow to use our weather pages